Estación Meteorológica Peña el Pijo (Robertgarden) [ 09/29/20 20:50:09 CEST ]

Fecha Hora Presion(HPa) Temp (°C) Humedad % Rocio (°C) Viento ( m/s) Direccion Lluvia 1Hora(mm) Lluvia 24H(mm) LLuvia Total(mm)
2020-Apr-19 01:09:19 1002.700 - - - - W     39.88
2020-Apr-19 02:09:13 1001.900 - - - - W     39.88
2020-Apr-19 03:09:14 1001.200 - - - - W     39.88
2020-Apr-19 04:09:11 1001.100 - - - - W     39.88
2020-Apr-19 05:09:12 1001.100 - - - - W     39.88
2020-Apr-19 06:09:04 1000.900 - - - - W     39.88
2020-Apr-19 07:09:47 1001.300 - - - - W     39.88
2020-Apr-19 08:09:49 1000.900 - - - - W     39.88
2020-Apr-19 09:09:47 1001.000 - - - - W     39.88
2020-Apr-19 10:09:38 1000.200 - - - - W     39.88
2020-Apr-19 11:08:49 1000.100 - - - - W     39.88
2020-Apr-19 12:09:21 999.900 - - - - W     39.88
2020-Apr-19 13:09:26 999.700 - - - - W     39.88
2020-Apr-19 14:09:23 999.000 - - - - W     39.88
2020-Apr-19 15:09:19 999.100 - - - - W     39.88
2020-Apr-19 16:09:05 999.400 - - - - W     39.88
2020-Apr-19 17:09:16 998.600 - - - - W     39.88
2020-Apr-19 18:09:06 998.300 - - - - W     39.88
2020-Apr-19 19:08:44 998.400 - - - - W     39.88
2020-Apr-19 20:08:56 999.800 - - - - W     39.88
2020-Apr-19 21:09:10 999.700 - - - - W     39.88
2020-Apr-19 22:09:03 1000.400 - - - - W     39.88
2020-Apr-19 23:09:40 1000.500 - - - - W     39.88

Temperatura Máxima:    Temperatura Mínima:
Presión Máxima:1002.700 Hpa    Presión Mínima:998.300 Hpa


Volver